Year,Month,Day,Hour,Minute,Value (Times are PST for temperature in C)
2014,07,01,00,00,14.90
2014,07,01,00,01,14.90
2014,07,01,00,02,14.90
2014,07,01,00,03,14.90
2014,07,01,00,04,14.90
2014,07,01,00,05,14.90
2014,07,01,00,06,14.90
2014,07,01,00,07,14.90
2014,07,01,00,08,14.90
2014,07,01,00,09,14.90
2014,07,01,00,10,14.90
2014,07,01,00,11,14.90
2014,07,01,00,12,14.90
2014,07,01,00,13,14.90
2014,07,01,00,14,14.90
2014,07,01,00,15,14.90
2014,07,01,00,16,14.90
2014,07,01,00,17,14.90
2014,07,01,00,18,14.90
2014,07,01,00,19,14.80
2014,07,01,00,20,14.80
2014,07,01,00,21,14.80
2014,07,01,00,22,14.80
2014,07,01,00,23,14.80
2014,07,01,00,24,14.80
2014,07,01,00,25,14.70
2014,07,01,00,26,14.70
2014,07,01,00,27,14.70
2014,07,01,00,28,14.70
2014,07,01,00,29,14.70
2014,07,01,00,30,14.70
2014,07,01,00,31,14.70
2014,07,01,00,32,14.70
2014,07,01,00,33,14.70
2014,07,01,00,34,14.70
2014,07,01,00,35,14.70
2014,07,01,00,36,14.70
2014,07,01,00,37,14.70
2014,07,01,00,38,14.70
2014,07,01,00,39,14.70
2014,07,01,00,40,14.70
2014,07,01,00,41,14.70
2014,07,01,00,42,14.70
2014,07,01,00,43,14.60
2014,07,01,00,44,14.60
2014,07,01,00,45,14.60
2014,07,01,00,46,14.60
2014,07,01,00,47,14.60
2014,07,01,00,48,14.60
2014,07,01,00,49,14.50
2014,07,01,00,50,14.50
2014,07,01,00,51,14.50
2014,07,01,00,52,14.40
2014,07,01,00,53,14.40
2014,07,01,00,54,14.40
2014,07,01,00,55,14.40
2014,07,01,00,56,14.40
2014,07,01,00,57,14.40
2014,07,01,00,58,14.50
2014,07,01,00,59,14.50
2014,07,01,01,00,14.40
2014,07,01,01,01,14.40
2014,07,01,01,02,14.40
2014,07,01,01,03,14.40
2014,07,01,01,04,14.40
2014,07,01,01,05,14.30
2014,07,01,01,06,14.30
2014,07,01,01,07,14.30
2014,07,01,01,08,14.30
2014,07,01,01,09,14.30
2014,07,01,01,10,14.30
2014,07,01,01,11,14.30
2014,07,01,01,12,14.30
2014,07,01,01,13,14.30
2014,07,01,01,14,14.30
2014,07,01,01,15,14.30
2014,07,01,01,16,14.30
2014,07,01,01,17,14.20
2014,07,01,01,18,14.20
2014,07,01,01,19,14.20
2014,07,01,01,20,14.20
2014,07,01,01,21,14.20
2014,07,01,01,22,14.20
2014,07,01,01,23,14.20
2014,07,01,01,24,14.20
2014,07,01,01,25,14.20
2014,07,01,01,26,14.20
2014,07,01,01,27,14.20
2014,07,01,01,28,14.20
2014,07,01,01,29,14.20
2014,07,01,01,30,14.20
2014,07,01,01,31,14.20
2014,07,01,01,32,14.20
2014,07,01,01,33,14.30
2014,07,01,01,34,14.40
2014,07,01,01,35,14.50
2014,07,01,01,36,14.70
2014,07,01,01,37,14.80
2014,07,01,01,38,14.90
2014,07,01,01,39,15.00
2014,07,01,01,40,15.10
2014,07,01,01,41,15.10
2014,07,01,01,42,15.00
2014,07,01,01,43,15.00
2014,07,01,01,44,15.00
2014,07,01,01,45,14.90
2014,07,01,01,46,14.90
2014,07,01,01,47,14.80
2014,07,01,01,48,14.80
2014,07,01,01,49,14.70
2014,07,01,01,50,14.70
2014,07,01,01,51,14.70
2014,07,01,01,52,14.70
2014,07,01,01,53,14.60
2014,07,01,01,54,14.60
2014,07,01,01,55,14.50
2014,07,01,01,56,14.50
2014,07,01,01,57,14.50
2014,07,01,01,58,14.40
2014,07,01,01,59,14.40
2014,07,01,02,00,14.30
2014,07,01,02,01,14.30
2014,07,01,02,02,14.30
2014,07,01,02,03,14.30
2014,07,01,02,04,14.20
2014,07,01,02,05,14.20
2014,07,01,02,06,14.20
2014,07,01,02,07,14.10
2014,07,01,02,08,14.10
2014,07,01,02,09,14.10
2014,07,01,02,10,14.20
2014,07,01,02,11,14.20
2014,07,01,02,12,14.20
2014,07,01,02,13,14.20
2014,07,01,02,14,14.20
2014,07,01,02,15,14.20
2014,07,01,02,16,14.20
2014,07,01,02,17,14.20
2014,07,01,02,18,14.20
2014,07,01,02,19,14.20
2014,07,01,02,20,14.20
2014,07,01,02,21,14.10
2014,07,01,02,22,14.10
2014,07,01,02,23,14.10
2014,07,01,02,24,14.10
2014,07,01,02,25,14.00
2014,07,01,02,26,14.00
2014,07,01,02,27,14.00
2014,07,01,02,28,13.90
2014,07,01,02,29,13.90
2014,07,01,02,30,13.90
2014,07,01,02,31,13.90
2014,07,01,02,32,13.90
2014,07,01,02,33,13.90
2014,07,01,02,34,13.90
2014,07,01,02,35,13.90
2014,07,01,02,36,13.90
2014,07,01,02,37,13.90
2014,07,01,02,38,13.90
2014,07,01,02,39,13.90
2014,07,01,02,40,13.80
2014,07,01,02,41,13.80
2014,07,01,02,42,13.80
2014,07,01,02,43,13.80
2014,07,01,02,44,13.80
2014,07,01,02,45,13.80
2014,07,01,02,46,13.80
2014,07,01,02,47,13.80
2014,07,01,02,48,13.80
2014,07,01,02,49,13.80
2014,07,01,02,50,13.70
2014,07,01,02,51,13.70
2014,07,01,02,52,13.70
2014,07,01,02,53,13.70
2014,07,01,02,54,13.70
2014,07,01,02,55,13.70
2014,07,01,02,56,13.70
2014,07,01,02,57,13.70
2014,07,01,02,58,13.70
2014,07,01,02,59,13.70
2014,07,01,03,00,13.70
2014,07,01,03,01,13.70
2014,07,01,03,02,13.70
2014,07,01,03,03,13.70
2014,07,01,03,04,13.70
2014,07,01,03,05,13.70
2014,07,01,03,06,13.70
2014,07,01,03,07,13.70
2014,07,01,03,08,13.70
2014,07,01,03,09,13.70
2014,07,01,03,10,13.60
2014,07,01,03,11,13.60
2014,07,01,03,12,13.60
2014,07,01,03,13,13.60
2014,07,01,03,14,13.60
2014,07,01,03,15,13.60
2014,07,01,03,16,13.60
2014,07,01,03,17,13.60
2014,07,01,03,18,13.60
2014,07,01,03,19,13.60
2014,07,01,03,20,13.60
2014,07,01,03,21,13.60
2014,07,01,03,22,13.60
2014,07,01,03,23,13.60
2014,07,01,03,24,13.60
2014,07,01,03,25,13.60
2014,07,01,03,26,13.50
2014,07,01,03,27,13.50
2014,07,01,03,28,13.50
2014,07,01,03,29,13.50
2014,07,01,03,30,13.50
2014,07,01,03,31,13.50
2014,07,01,03,32,13.40
2014,07,01,03,33,13.40
2014,07,01,03,34,13.40
2014,07,01,03,35,13.40
2014,07,01,03,36,13.40
2014,07,01,03,37,13.40
2014,07,01,03,38,13.40
2014,07,01,03,39,13.40
2014,07,01,03,40,13.40
2014,07,01,03,41,13.40
2014,07,01,03,42,13.40
2014,07,01,03,43,13.40
2014,07,01,03,44,13.40
2014,07,01,03,45,13.40
2014,07,01,03,46,13.40
2014,07,01,03,47,13.30
2014,07,01,03,48,13.30
2014,07,01,03,49,13.30
2014,07,01,03,50,13.30
2014,07,01,03,51,13.30
2014,07,01,03,52,13.30
2014,07,01,03,53,13.30
2014,07,01,03,54,13.20
2014,07,01,03,55,13.20
2014,07,01,03,56,13.20
2014,07,01,03,57,13.20
2014,07,01,03,58,13.20
2014,07,01,03,59,13.20
2014,07,01,04,00,13.20
2014,07,01,04,01,13.20
2014,07,01,04,02,13.10
2014,07,01,04,03,13.10
2014,07,01,04,04,13.10
2014,07,01,04,05,13.10
2014,07,01,04,06,13.10
2014,07,01,04,07,13.10
2014,07,01,04,08,13.10
2014,07,01,04,09,13.10
2014,07,01,04,10,13.10
2014,07,01,04,11,13.10
2014,07,01,04,12,13.00
2014,07,01,04,13,13.00
2014,07,01,04,14,13.00
2014,07,01,04,15,13.00
2014,07,01,04,16,13.00
2014,07,01,04,17,12.90
2014,07,01,04,18,12.90
2014,07,01,04,19,12.90
2014,07,01,04,20,12.90
2014,07,01,04,21,12.90
2014,07,01,04,22,12.90
2014,07,01,04,23,12.90
2014,07,01,04,24,12.90
2014,07,01,04,25,12.90
2014,07,01,04,26,12.90
2014,07,01,04,27,12.90
2014,07,01,04,28,12.90
2014,07,01,04,29,12.90
2014,07,01,04,30,12.80
2014,07,01,04,31,12.80
2014,07,01,04,32,12.80
2014,07,01,04,33,12.80
2014,07,01,04,34,12.80
2014,07,01,04,35,12.80
2014,07,01,04,36,12.80
2014,07,01,04,37,12.70
2014,07,01,04,38,12.70
2014,07,01,04,39,12.70
2014,07,01,04,40,12.70
2014,07,01,04,41,12.70
2014,07,01,04,42,12.70
2014,07,01,04,43,12.70
2014,07,01,04,44,12.70
2014,07,01,04,45,12.70
2014,07,01,04,46,12.60
2014,07,01,04,47,12.60
2014,07,01,04,48,12.60
2014,07,01,04,49,12.60
2014,07,01,04,50,12.60
2014,07,01,04,51,12.60
2014,07,01,04,52,12.60
2014,07,01,04,53,12.60
2014,07,01,04,54,12.60
2014,07,01,04,55,12.60
2014,07,01,04,56,12.60
2014,07,01,04,57,12.60
2014,07,01,04,58,12.60
2014,07,01,04,59,12.60
2014,07,01,05,00,12.60
2014,07,01,05,01,12.70
2014,07,01,05,02,12.70
2014,07,01,05,03,12.70
2014,07,01,05,04,12.70
2014,07,01,05,05,12.70
2014,07,01,05,06,12.80
2014,07,01,05,07,12.80
2014,07,01,05,08,12.80
2014,07,01,05,09,12.80
2014,07,01,05,10,12.80
2014,07,01,05,11,12.80
2014,07,01,05,12,12.80
2014,07,01,05,13,12.80
2014,07,01,05,14,12.80
2014,07,01,05,15,12.80
2014,07,01,05,16,12.80
2014,07,01,05,17,12.80
2014,07,01,05,18,12.80
2014,07,01,05,19,12.80
2014,07,01,05,20,12.80
2014,07,01,05,21,12.80
2014,07,01,05,22,12.80
2014,07,01,05,23,12.80
2014,07,01,05,24,12.80
2014,07,01,05,25,12.80
2014,07,01,05,26,12.80
2014,07,01,05,27,12.80
2014,07,01,05,28,12.80
2014,07,01,05,29,12.80
2014,07,01,05,30,12.80
2014,07,01,05,31,12.70
2014,07,01,05,32,12.70
2014,07,01,05,33,12.70
2014,07,01,05,34,12.70
2014,07,01,05,35,12.60
2014,07,01,05,36,12.60
2014,07,01,05,37,12.60
2014,07,01,05,38,12.60
2014,07,01,05,39,12.60
2014,07,01,05,40,12.60
2014,07,01,05,41,12.60
2014,07,01,05,42,12.50
2014,07,01,05,43,12.50
2014,07,01,05,44,12.50
2014,07,01,05,45,12.50
2014,07,01,05,46,12.50
2014,07,01,05,47,12.50
2014,07,01,05,48,12.50
2014,07,01,05,49,12.40
2014,07,01,05,50,12.40
2014,07,01,05,51,12.40
2014,07,01,05,52,12.40
2014,07,01,05,53,12.40
2014,07,01,05,54,12.40
2014,07,01,05,55,12.40
2014,07,01,05,56,12.40
2014,07,01,05,57,12.40
2014,07,01,05,58,12.40
2014,07,01,05,59,12.40
2014,07,01,06,00,12.40
2014,07,01,06,01,12.40
2014,07,01,06,02,12.40
2014,07,01,06,03,12.40
2014,07,01,06,04,12.40
2014,07,01,06,05,12.40
2014,07,01,06,06,12.40
2014,07,01,06,07,12.40
2014,07,01,06,08,12.40
2014,07,01,06,09,12.40
2014,07,01,06,10,12.40
2014,07,01,06,11,12.40
2014,07,01,06,12,12.40
2014,07,01,06,13,12.40
2014,07,01,06,14,12.40
2014,07,01,06,15,12.40
2014,07,01,06,16,12.50
2014,07,01,06,17,12.50
2014,07,01,06,18,12.50
2014,07,01,06,19,12.50
2014,07,01,06,20,12.50
2014,07,01,06,21,12.50
2014,07,01,06,22,12.60
2014,07,01,06,23,12.60
2014,07,01,06,24,12.60
2014,07,01,06,25,12.60
2014,07,01,06,26,12.60
2014,07,01,06,27,12.60
2014,07,01,06,28,12.60
2014,07,01,06,29,12.60
2014,07,01,06,30,12.60
2014,07,01,06,31,12.70
2014,07,01,06,32,12.70
2014,07,01,06,33,12.70
2014,07,01,06,34,12.70
2014,07,01,06,35,12.70
2014,07,01,06,36,12.80
2014,07,01,06,37,12.80
2014,07,01,06,38,12.80
2014,07,01,06,39,12.80
2014,07,01,06,40,12.90
2014,07,01,06,41,12.90
2014,07,01,06,42,12.90
2014,07,01,06,43,12.90
2014,07,01,06,44,12.90
2014,07,01,06,45,12.90
2014,07,01,06,46,13.00
2014,07,01,06,47,13.00
2014,07,01,06,48,13.00
2014,07,01,06,49,13.00
2014,07,01,06,50,13.00
2014,07,01,06,51,13.10
2014,07,01,06,52,13.10
2014,07,01,06,53,13.10
2014,07,01,06,54,13.10
2014,07,01,06,55,13.10
2014,07,01,06,56,13.10
2014,07,01,06,57,13.20
2014,07,01,06,58,13.20
2014,07,01,06,59,13.20
2014,07,01,07,00,13.20
2014,07,01,07,01,13.30
2014,07,01,07,02,13.30
2014,07,01,07,03,13.30
2014,07,01,07,04,13.40
2014,07,01,07,05,13.40
2014,07,01,07,06,13.50
2014,07,01,07,07,13.50
2014,07,01,07,08,13.60
2014,07,01,07,09,13.70
2014,07,01,07,10,13.70
2014,07,01,07,11,13.80
2014,07,01,07,12,13.80
2014,07,01,07,13,13.90
2014,07,01,07,14,14.00
2014,07,01,07,15,14.00
2014,07,01,07,16,14.10
2014,07,01,07,17,14.20
2014,07,01,07,18,14.30
2014,07,01,07,19,14.30
2014,07,01,07,20,14.30
2014,07,01,07,21,14.40
2014,07,01,07,22,14.50
2014,07,01,07,23,14.50
2014,07,01,07,24,14.60
2014,07,01,07,25,14.70
2014,07,01,07,26,14.70
2014,07,01,07,27,14.80
2014,07,01,07,28,14.90
2014,07,01,07,29,15.00
2014,07,01,07,30,15.10
2014,07,01,07,31,15.20
2014,07,01,07,32,15.30
2014,07,01,07,33,15.40
2014,07,01,07,34,15.50
2014,07,01,07,35,15.60
2014,07,01,07,36,15.70
2014,07,01,07,37,15.90
2014,07,01,07,38,16.00
2014,07,01,07,39,16.10
2014,07,01,07,40,16.20
2014,07,01,07,41,16.20
2014,07,01,07,42,16.30
2014,07,01,07,43,16.40
2014,07,01,07,44,16.40
2014,07,01,07,45,16.50
2014,07,01,07,46,16.60
2014,07,01,07,47,16.70
2014,07,01,07,48,16.70
2014,07,01,07,49,16.80
2014,07,01,07,50,16.90
2014,07,01,07,51,17.00
2014,07,01,07,52,17.00
2014,07,01,07,53,17.10
2014,07,01,07,54,17.20
2014,07,01,07,55,17.20
2014,07,01,07,56,17.30
2014,07,01,07,57,17.30
2014,07,01,07,58,17.40
2014,07,01,07,59,17.40
2014,07,01,08,00,17.50
2014,07,01,08,01,17.50
2014,07,01,08,02,17.60
2014,07,01,08,03,17.60
2014,07,01,08,04,17.70
2014,07,01,08,05,17.80
2014,07,01,08,06,17.90
2014,07,01,08,07,18.00
2014,07,01,08,08,18.10
2014,07,01,08,09,18.20
2014,07,01,08,10,18.20
2014,07,01,08,11,18.30
2014,07,01,08,12,18.40
2014,07,01,08,13,18.40
2014,07,01,08,14,18.50
2014,07,01,08,15,18.50
2014,07,01,08,16,18.40
2014,07,01,08,17,18.40
2014,07,01,08,18,18.40
2014,07,01,08,19,18.40
2014,07,01,08,20,18.40
2014,07,01,08,21,18.30
2014,07,01,08,22,18.30
2014,07,01,08,23,18.30
2014,07,01,08,24,18.30
2014,07,01,08,25,18.30
2014,07,01,08,26,18.30
2014,07,01,08,27,18.30
2014,07,01,08,28,18.40
2014,07,01,08,29,18.40
2014,07,01,08,30,18.40
2014,07,01,08,31,18.50
2014,07,01,08,32,18.50
2014,07,01,08,33,18.60
2014,07,01,08,34,18.70
2014,07,01,08,35,18.70
2014,07,01,08,36,18.80
2014,07,01,08,37,18.90
2014,07,01,08,38,18.90
2014,07,01,08,39,19.00
2014,07,01,08,40,19.10
2014,07,01,08,41,19.10
2014,07,01,08,42,19.20
2014,07,01,08,43,19.30
2014,07,01,08,44,19.40
2014,07,01,08,45,19.50
2014,07,01,08,46,19.60
2014,07,01,08,47,19.70
2014,07,01,08,48,19.80
2014,07,01,08,49,20.00
2014,07,01,08,50,20.10
2014,07,01,08,51,20.20
2014,07,01,08,52,20.30
2014,07,01,08,53,20.40
2014,07,01,08,54,20.50
2014,07,01,08,55,20.60
2014,07,01,08,56,20.60
2014,07,01,08,57,20.70
2014,07,01,08,58,20.80
2014,07,01,08,59,20.80
2014,07,01,09,00,20.80
2014,07,01,09,01,20.80
2014,07,01,09,02,20.80
2014,07,01,09,03,20.70
2014,07,01,09,04,20.70
2014,07,01,09,05,20.60
2014,07,01,09,06,20.50
2014,07,01,09,07,20.40
2014,07,01,09,08,20.20
2014,07,01,09,09,20.10
2014,07,01,09,10,20.10
2014,07,01,09,11,20.00
2014,07,01,09,12,20.00
2014,07,01,09,13,20.00
2014,07,01,09,14,20.00
2014,07,01,09,15,20.10
2014,07,01,09,16,20.10
2014,07,01,09,17,20.20
2014,07,01,09,18,20.20
2014,07,01,09,19,20.20
2014,07,01,09,20,20.20
2014,07,01,09,21,20.30
2014,07,01,09,22,20.30
2014,07,01,09,23,20.40
2014,07,01,09,24,20.40
2014,07,01,09,25,20.40
2014,07,01,09,26,20.50
2014,07,01,09,27,20.60
2014,07,01,09,28,20.60
2014,07,01,09,29,20.60
2014,07,01,09,30,20.70
2014,07,01,09,31,20.70
2014,07,01,09,32,20.70
2014,07,01,09,33,20.70
2014,07,01,09,34,20.70
2014,07,01,09,35,20.70
2014,07,01,09,36,20.80
2014,07,01,09,37,20.80
2014,07,01,09,38,20.80
2014,07,01,09,39,20.90
2014,07,01,09,40,20.90
2014,07,01,09,41,21.00
2014,07,01,09,42,21.00
2014,07,01,09,43,21.00
2014,07,01,09,44,21.10
2014,07,01,09,45,21.10
2014,07,01,09,46,21.20
2014,07,01,09,47,21.20
2014,07,01,09,48,21.20
2014,07,01,09,49,21.20
2014,07,01,09,50,21.30
2014,07,01,09,51,21.30
2014,07,01,09,52,21.40
2014,07,01,09,53,21.50
2014,07,01,09,54,21.50
2014,07,01,09,55,21.60
2014,07,01,09,56,21.70
2014,07,01,09,57,21.80
2014,07,01,09,58,21.80
2014,07,01,09,59,21.90
2014,07,01,10,00,21.90
2014,07,01,10,01,21.90
2014,07,01,10,02,21.90
2014,07,01,10,03,21.80
2014,07,01,10,04,21.80
2014,07,01,10,05,21.80
2014,07,01,10,06,21.80
2014,07,01,10,07,21.90
2014,07,01,10,08,21.90
2014,07,01,10,09,21.90
2014,07,01,10,10,22.00
2014,07,01,10,11,22.10
2014,07,01,10,12,22.10
2014,07,01,10,13,22.10
2014,07,01,10,14,22.20
2014,07,01,10,15,22.20
2014,07,01,10,16,22.20
2014,07,01,10,17,22.20
2014,07,01,10,18,22.30
2014,07,01,10,19,22.30
2014,07,01,10,20,22.40
2014,07,01,10,21,22.50
2014,07,01,10,22,22.50
2014,07,01,10,23,22.60
2014,07,01,10,24,22.60
2014,07,01,10,25,22.70
2014,07,01,10,26,22.70
2014,07,01,10,27,22.70
2014,07,01,10,28,22.70
2014,07,01,10,29,22.70
2014,07,01,10,30,22.70
2014,07,01,10,31,22.70
2014,07,01,10,32,22.70
2014,07,01,10,33,22.70
2014,07,01,10,34,22.80
2014,07,01,10,35,22.80
2014,07,01,10,36,22.90
2014,07,01,10,37,23.00
2014,07,01,10,38,23.00
2014,07,01,10,39,23.10
2014,07,01,10,40,23.10
2014,07,01,10,41,23.00
2014,07,01,10,42,23.00
2014,07,01,10,43,23.00
2014,07,01,10,44,22.90
2014,07,01,10,45,23.00
2014,07,01,10,46,23.00
2014,07,01,10,47,23.10
2014,07,01,10,48,23.10
2014,07,01,10,49,23.10
2014,07,01,10,50,23.10
2014,07,01,10,51,23.10
2014,07,01,10,52,23.10
2014,07,01,10,53,23.00
2014,07,01,10,54,22.90
2014,07,01,10,55,22.90
2014,07,01,10,56,22.90
2014,07,01,10,57,22.90
2014,07,01,10,58,22.80
2014,07,01,10,59,22.80
2014,07,01,11,00,22.80
2014,07,01,11,01,22.80
2014,07,01,11,02,22.70
2014,07,01,11,03,22.70
2014,07,01,11,04,22.60
2014,07,01,11,05,22.60
2014,07,01,11,06,22.70
2014,07,01,11,07,22.70
2014,07,01,11,08,22.90
2014,07,01,11,09,23.00
2014,07,01,11,10,23.00
2014,07,01,11,11,23.10
2014,07,01,11,12,23.20
2014,07,01,11,13,23.20
2014,07,01,11,14,23.20
2014,07,01,11,15,23.20
2014,07,01,11,16,23.20
2014,07,01,11,17,23.20
2014,07,01,11,18,23.10
2014,07,01,11,19,23.20
2014,07,01,11,20,23.20
2014,07,01,11,21,23.30
2014,07,01,11,22,23.30
2014,07,01,11,23,23.40
2014,07,01,11,24,23.40
2014,07,01,11,25,23.50
2014,07,01,11,26,23.40
2014,07,01,11,27,23.40
2014,07,01,11,28,23.40
2014,07,01,11,29,23.30
2014,07,01,11,30,23.30
2014,07,01,11,31,23.30
2014,07,01,11,32,23.30
2014,07,01,11,33,23.40
2014,07,01,11,34,23.50
2014,07,01,11,35,23.50
2014,07,01,11,36,23.60
2014,07,01,11,37,23.70
2014,07,01,11,38,23.80
2014,07,01,11,39,24.00
2014,07,01,11,40,24.00
2014,07,01,11,41,24.10
2014,07,01,11,42,24.10
2014,07,01,11,43,24.10
2014,07,01,11,44,24.10
2014,07,01,11,45,24.10
2014,07,01,11,46,24.10
2014,07,01,11,47,24.10
2014,07,01,11,48,24.20
2014,07,01,11,49,24.20
2014,07,01,11,50,24.10
2014,07,01,11,51,24.10
2014,07,01,11,52,24.10
2014,07,01,11,53,24.10
2014,07,01,11,54,24.10
2014,07,01,11,55,24.20
2014,07,01,11,56,24.20
2014,07,01,11,57,24.20
2014,07,01,11,58,24.20
2014,07,01,11,59,24.30
2014,07,01,12,00,24.30
2014,07,01,12,01,24.30
2014,07,01,12,02,24.30
2014,07,01,12,03,24.30
2014,07,01,12,04,24.30
2014,07,01,12,05,24.30
2014,07,01,12,06,24.20
2014,07,01,12,07,24.20
2014,07,01,12,08,24.20
2014,07,01,12,09,24.10
2014,07,01,12,10,24.20
2014,07,01,12,11,24.20
2014,07,01,12,12,24.30
2014,07,01,12,13,24.30
2014,07,01,12,14,24.40
2014,07,01,12,15,24.50
2014,07,01,12,16,24.60
2014,07,01,12,17,24.60
2014,07,01,12,18,24.60
2014,07,01,12,19,24.60
2014,07,01,12,20,24.60
2014,07,01,12,21,24.60
2014,07,01,12,22,24.60
2014,07,01,12,23,24.70
2014,07,01,12,24,24.70
2014,07,01,12,25,24.70
2014,07,01,12,26,24.60
2014,07,01,12,27,24.50
2014,07,01,12,28,24.40
2014,07,01,12,29,24.30
2014,07,01,12,30,24.30
2014,07,01,12,31,24.30
2014,07,01,12,32,24.30
2014,07,01,12,33,24.30
2014,07,01,12,34,24.30
2014,07,01,12,35,24.30
2014,07,01,12,36,24.30
2014,07,01,12,37,24.20
2014,07,01,12,38,24.10
2014,07,01,12,39,24.10
2014,07,01,12,40,24.10
2014,07,01,12,41,24.10
2014,07,01,12,42,24.10
2014,07,01,12,43,24.20
2014,07,01,12,44,24.20
2014,07,01,12,45,24.30
2014,07,01,12,46,24.30
2014,07,01,12,47,24.30
2014,07,01,12,48,24.30
2014,07,01,12,49,24.30
2014,07,01,12,50,24.40
2014,07,01,12,51,24.40
2014,07,01,12,52,24.40
2014,07,01,12,53,24.40
2014,07,01,12,54,24.40
2014,07,01,12,55,24.40
2014,07,01,12,56,24.40
2014,07,01,12,57,24.50
2014,07,01,12,58,24.60
2014,07,01,12,59,24.60
2014,07,01,13,00,24.70
2014,07,01,13,01,24.80
2014,07,01,13,02,24.90
2014,07,01,13,03,24.90
2014,07,01,13,04,25.00
2014,07,01,13,05,25.00
2014,07,01,13,06,25.10
2014,07,01,13,07,25.20
2014,07,01,13,08,25.30
2014,07,01,13,09,25.30
2014,07,01,13,10,25.30
2014,07,01,13,11,25.40
2014,07,01,13,12,25.40
2014,07,01,13,13,25.50
2014,07,01,13,14,25.50
2014,07,01,13,15,25.60
2014,07,01,13,16,25.60
2014,07,01,13,17,25.70
2014,07,01,13,18,25.70
2014,07,01,13,19,25.70
2014,07,01,13,20,25.60
2014,07,01,13,21,25.60
2014,07,01,13,22,25.60
2014,07,01,13,23,25.60
2014,07,01,13,24,25.60
2014,07,01,13,25,25.60
2014,07,01,13,26,25.60
2014,07,01,13,27,25.70
2014,07,01,13,28,25.70
2014,07,01,13,29,25.80
2014,07,01,13,30,25.80
2014,07,01,13,31,25.90
2014,07,01,13,32,25.90
2014,07,01,13,33,25.90
2014,07,01,13,34,26.00
2014,07,01,13,35,26.00
2014,07,01,13,36,26.00
2014,07,01,13,37,26.00
2014,07,01,13,38,25.90
2014,07,01,13,39,25.80
2014,07,01,13,40,25.80
2014,07,01,13,41,25.80
2014,07,01,13,42,25.80
2014,07,01,13,43,25.90
2014,07,01,13,44,25.90
2014,07,01,13,45,25.90
2014,07,01,13,46,26.00
2014,07,01,13,47,26.10
2014,07,01,13,48,26.10
2014,07,01,13,49,26.20
2014,07,01,13,50,26.40
2014,07,01,13,51,26.50
2014,07,01,13,52,26.60
2014,07,01,13,53,26.50
2014,07,01,13,54,26.40
2014,07,01,13,55,26.30
2014,07,01,13,56,26.30
2014,07,01,13,57,26.20
2014,07,01,13,58,26.20
2014,07,01,13,59,26.20
2014,07,01,14,00,26.30
2014,07,01,14,01,26.30
2014,07,01,14,02,26.30
2014,07,01,14,03,26.30
2014,07,01,14,04,26.30
2014,07,01,14,05,26.30
2014,07,01,14,06,26.40
2014,07,01,14,07,26.50
2014,07,01,14,08,26.50
2014,07,01,14,09,26.50
2014,07,01,14,10,26.60
2014,07,01,14,11,26.60
2014,07,01,14,12,26.70
2014,07,01,14,13,26.80
2014,07,01,14,14,26.80
2014,07,01,14,15,26.90
2014,07,01,14,16,26.90
2014,07,01,14,17,26.90
2014,07,01,14,18,27.00
2014,07,01,14,19,27.00
2014,07,01,14,20,27.00
2014,07,01,14,21,27.10
2014,07,01,14,22,27.10
2014,07,01,14,23,27.20
2014,07,01,14,24,27.20
2014,07,01,14,25,27.20
2014,07,01,14,26,27.20
2014,07,01,14,27,27.10
2014,07,01,14,28,27.10
2014,07,01,14,29,27.10
2014,07,01,14,30,27.10
2014,07,01,14,31,27.10
2014,07,01,14,32,27.00
2014,07,01,14,33,27.10
2014,07,01,14,34,27.10
2014,07,01,14,35,27.10
2014,07,01,14,36,27.10
2014,07,01,14,37,27.10
2014,07,01,14,38,27.10
2014,07,01,14,39,27.20
2014,07,01,14,40,27.20
2014,07,01,14,41,27.20
2014,07,01,14,42,27.20
2014,07,01,14,43,27.20
2014,07,01,14,44,27.30
2014,07,01,14,45,27.40
2014,07,01,14,46,27.50
2014,07,01,14,47,27.60
2014,07,01,14,48,27.70
2014,07,01,14,49,27.70
2014,07,01,14,50,27.70
2014,07,01,14,51,27.80
2014,07,01,14,52,27.80
2014,07,01,14,53,27.80
2014,07,01,14,54,27.80
2014,07,01,14,55,27.70
2014,07,01,14,56,27.70
2014,07,01,14,57,27.70
2014,07,01,14,58,27.70
2014,07,01,14,59,27.70
2014,07,01,15,00,27.60
2014,07,01,15,01,27.60
2014,07,01,15,02,27.60
2014,07,01,15,03,27.60
2014,07,01,15,04,27.50
2014,07,01,15,05,27.50
2014,07,01,15,06,27.60
2014,07,01,15,07,27.60
2014,07,01,15,08,27.50
2014,07,01,15,09,27.50
2014,07,01,15,10,27.50
2014,07,01,15,11,27.60
2014,07,01,15,12,27.50
2014,07,01,15,13,27.40
2014,07,01,15,14,27.20
2014,07,01,15,15,27.10
2014,07,01,15,16,27.10
2014,07,01,15,17,27.10
2014,07,01,15,18,27.10
2014,07,01,15,19,27.10
2014,07,01,15,20,27.10
2014,07,01,15,21,27.10
2014,07,01,15,22,27.10
2014,07,01,15,23,27.10
2014,07,01,15,24,27.10
2014,07,01,15,25,27.10
2014,07,01,15,26,27.20
2014,07,01,15,27,27.20
2014,07,01,15,28,27.30
2014,07,01,15,29,27.30
2014,07,01,15,30,27.30
2014,07,01,15,31,27.40
2014,07,01,15,32,27.40
2014,07,01,15,33,27.40
2014,07,01,15,34,27.50
2014,07,01,15,35,27.50
2014,07,01,15,36,27.60
2014,07,01,15,37,27.60
2014,07,01,15,38,27.70
2014,07,01,15,39,27.80
2014,07,01,15,40,27.80
2014,07,01,15,41,27.90
2014,07,01,15,42,28.00
2014,07,01,15,43,28.00
2014,07,01,15,44,28.00
2014,07,01,15,45,28.00
2014,07,01,15,46,27.90
2014,07,01,15,47,27.90
2014,07,01,15,48,28.00
2014,07,01,15,49,28.10
2014,07,01,15,50,28.10
2014,07,01,15,51,28.20
2014,07,01,15,52,28.20
2014,07,01,15,53,28.20
2014,07,01,15,54,28.20
2014,07,01,15,55,28.20
2014,07,01,15,56,28.20
2014,07,01,15,57,28.10
2014,07,01,15,58,28.00
2014,07,01,15,59,28.00
2014,07,01,16,00,27.80
2014,07,01,16,01,27.70
2014,07,01,16,02,27.70
2014,07,01,16,03,27.60
2014,07,01,16,04,27.60
2014,07,01,16,05,27.60
2014,07,01,16,06,27.50
2014,07,01,16,07,27.50
2014,07,01,16,08,27.40
2014,07,01,16,09,27.40
2014,07,01,16,10,27.40
2014,07,01,16,11,27.40
2014,07,01,16,12,27.40
2014,07,01,16,13,27.40
2014,07,01,16,14,27.40
2014,07,01,16,15,27.50
2014,07,01,16,16,27.50
2014,07,01,16,17,27.50
2014,07,01,16,18,27.50
2014,07,01,16,19,27.50
2014,07,01,16,20,27.50
2014,07,01,16,21,27.60
2014,07,01,16,22,27.60
2014,07,01,16,23,27.60
2014,07,01,16,24,27.60
2014,07,01,16,25,27.60
2014,07,01,16,26,27.60
2014,07,01,16,27,27.60
2014,07,01,16,28,27.60
2014,07,01,16,29,27.60
2014,07,01,16,30,27.60
2014,07,01,16,31,27.60
2014,07,01,16,32,27.70
2014,07,01,16,33,27.70
2014,07,01,16,34,27.80
2014,07,01,16,35,27.80
2014,07,01,16,36,27.80
2014,07,01,16,37,27.80
2014,07,01,16,38,27.80
2014,07,01,16,39,27.80
2014,07,01,16,40,27.80
2014,07,01,16,41,27.80
2014,07,01,16,42,27.80
2014,07,01,16,43,27.80
2014,07,01,16,44,27.80
2014,07,01,16,45,27.80
2014,07,01,16,46,27.80
2014,07,01,16,47,27.80
2014,07,01,16,48,27.80
2014,07,01,16,49,27.80
2014,07,01,16,50,27.80
2014,07,01,16,51,27.80
2014,07,01,16,52,27.70
2014,07,01,16,53,27.70
2014,07,01,16,54,27.70
2014,07,01,16,55,27.70
2014,07,01,16,56,27.80
2014,07,01,16,57,27.80
2014,07,01,16,58,27.90
2014,07,01,16,59,28.00
2014,07,01,17,00,28.00
2014,07,01,17,01,28.10
2014,07,01,17,02,28.10
2014,07,01,17,03,28.10
2014,07,01,17,04,28.10
2014,07,01,17,05,28.10
2014,07,01,17,06,28.10
2014,07,01,17,07,28.10
2014,07,01,17,08,28.00
2014,07,01,17,09,27.90
2014,07,01,17,10,27.90
2014,07,01,17,11,27.80
2014,07,01,17,12,27.80
2014,07,01,17,13,27.80
2014,07,01,17,14,27.80
2014,07,01,17,15,27.80
2014,07,01,17,16,27.80
2014,07,01,17,17,27.80
2014,07,01,17,18,27.80
2014,07,01,17,19,27.80